#timestamp,LO_Frequency,Hit,StdDev 
1582483695.2,286046969.2,P
1582483715.9,286046967.4,P
1582483735.7,286046965.7,P
1582483755.6,286046963.0,Y
1582483775.4,286046995.9,P
1582483795.2,286046995.1,N
1582483815.1,286046997.7,N
1582483816.0,286046997.7,N
1582483835.8,286046997.7,N
1582483855.7,286046995.4,N
1582483875.5,286046995.6,N
1582483895.3,286046995.1,N
1582483915.2,286046999.3,N
1582483935.0,286046998.4,N
1582483935.9,286046998.4,N
1582483955.8,286046994.9,N
1582483975.6,286046996.4,N
1582483995.4,286046994.5,N
1582484015.3,286046995.4,N
1582484035.1,286046995.8,N
1582484055.9,286046995.8,N
1582484075.7,286046996.2,N
1582484095.5,286046994.8,N
1582484115.4,286046992.3,N
1582484135.2,286046992.3,N
1582484155.0,286046994.3,N
1582484155.9,286046994.3,N
1582484175.8,286046993.4,N
1582484195.6,286046994.9,N
1582484215.5,286046995.7,N
1582484235.3,286046997.8,N
1582484255.1,286046997.6,N
1582484275.9,286046996.7,N
1582484295.7,286046999.0,N
1582484315.6,286046999.0,N
1582484335.4,286046997.6,N
1582484355.2,286046994.0,Y
1582484375.1,286046997.0,P
1582484376.0,286046997.0,P
1582484395.8,286046997.0,P
